Watonga, OK

4:55 AM CDT on October 01, 2016 (GMT -0500)
Watonga

Weather History for KJWG - November, 2013

Change the Weather History Date:

Tuesday, November 5, 2013

  Actual Average Record
Temperature  
Mean Temperature 55 °F -  
Max Temperature 66 °F 62 °F 78 °F (1980)
Min Temperature 43 °F 39 °F 23 °F (1992)
Degree Days  
Heating Degree Days 10    
Growing Degree Days 5 (Base 50)    
Moisture  
Dew Point 58 °F    
Average Humidity 99    
Maximum Humidity 100    
Minimum Humidity 92    
Precipitation  
Precipitation 2.75 in - - ()
Sea Level Pressure  
Sea Level Pressure 29.96 in    
Wind  
Wind Speed 10 mph (ESE)    
Max Wind Speed 18 mph    
Max Gust Speed 28 mph    
Visibility 8 miles    
Events Rain , Thunderstorm    
Averages and records for this station are not official NWS values.
T = Trace of Precipitation, MM = Missing Value Source: NWS Daily Summary

Daily Weather History Graph

Daily Weather History Graph

Search for Another Location

Airport or City:

Trip Planner

Search our weather history database for the weather conditions in past years. The results will help you decide how hot, cold, wet, or windy it might be!

Date:

Astronomy

Nov. 05, 2013 Rise Set
Actual Time 7:00 AM CST 5:33 PM CST
Civil Twilight 6:33 AM CST 6:00 PM CST
Nautical Twilight 6:03 AM CST 6:31 PM CST
Astronomical Twilight 5:33 AM CST 7:01 PM CST
Moon 9:13 AM CST (11/5) 7:39 PM CST (11/5)
Length of Visible Light 11h 27m
Length of Day
10h 33m
Waxing Crescent, 7% of the Moon is Illuminated
Nov 5
Waxing Crescent
Nov 9
First Quarter
Nov 17
Full
Nov 25
Last Quarter
Dec 2
New

Hourly Weather History & Observations

Time (CST) Temp. Windchill Dew Point Humidity Pressure Visibility Wind Dir Wind Speed Gust Speed Precip Events Conditions
12:15 AM 58.3 °F - 56.3 °F 93% 30.02 in 10.0 mi ESE 10.4 mph 16.1 mph N/A   Overcast
12:35 AM 58.3 °F - 55.9 °F 92% 30.02 in 10.0 mi ESE 9.2 mph 16.1 mph N/A   Overcast
12:55 AM 58.3 °F - 55.9 °F 92% 30.01 in 10.0 mi ESE 9.2 mph - N/A   Overcast
1:15 AM 58.3 °F - 55.9 °F 92% 30.01 in 10.0 mi ESE 8.1 mph - N/A   Overcast
1:35 AM 58.3 °F - 56.3 °F 93% 30.01 in 10.0 mi East 10.4 mph - N/A   Overcast
1:55 AM 58.5 °F - 56.7 °F 94% 30.01 in 10.0 mi ESE 8.1 mph - N/A   Overcast
2:15 AM 58.3 °F - 56.8 °F 95% 30.00 in 10.0 mi East 6.9 mph - N/A   Overcast
2:35 AM 58.3 °F - 57.2 °F 96% 30.00 in 10.0 mi ESE 6.9 mph - N/A   Overcast
2:55 AM 58.1 °F - 58.1 °F 100% 30.00 in 10.0 mi East 10.4 mph - N/A   Overcast
3:15 AM 58.1 °F - 58.1 °F 100% 29.99 in 10.0 mi East 6.9 mph - N/A   Overcast
3:35 AM 57.7 °F - 57.7 °F 100% 29.99 in 4.0 mi ESE 6.9 mph - N/A   Drizzle
3:55 AM 57.6 °F - 57.6 °F 100% 29.99 in 4.0 mi ESE 8.1 mph - N/A   Heavy Drizzle
4:15 AM 57.7 °F - 57.7 °F 100% 29.99 in 10.0 mi ESE 5.8 mph - N/A   Overcast
4:35 AM 57.9 °F - 57.9 °F 100% 29.99 in 10.0 mi East 5.8 mph - N/A   Overcast
4:55 AM 58.1 °F - 58.1 °F 100% 29.99 in 10.0 mi ENE 6.9 mph - N/A   Overcast
5:15 AM 57.9 °F - 57.9 °F 100% 29.98 in 10.0 mi ENE 6.9 mph - N/A   Overcast
5:35 AM 57.9 °F - 57.9 °F 100% 29.98 in 10.0 mi ENE 9.2 mph - N/A   Overcast
5:55 AM 58.1 °F - 58.1 °F 100% 29.97 in 10.0 mi East 12.7 mph - N/A   Overcast
6:15 AM 58.1 °F - 58.1 °F 100% 29.97 in 10.0 mi ESE 10.4 mph - N/A   Overcast
6:35 AM 58.1 °F - 58.1 °F 100% 29.97 in 10.0 mi ESE 11.5 mph - N/A   Overcast
6:55 AM 58.1 °F - 58.1 °F 100% 29.97 in 10.0 mi East 9.2 mph - N/A   Overcast
7:15 AM 57.9 °F - 57.9 °F 100% 29.97 in 10.0 mi East 9.2 mph - N/A   Overcast
7:35 AM 58.1 °F - 58.1 °F 100% 29.97 in 10.0 mi East 10.4 mph - N/A   Overcast
7:55 AM 58.1 °F - 58.1 °F 100% 29.97 in 10.0 mi ESE 10.4 mph 18.4 mph N/A   Overcast
8:15 AM 58.3 °F - 58.3 °F 100% 29.98 in 10.0 mi East 10.4 mph - N/A   Overcast
8:35 AM 58.3 °F - 58.3 °F 100% 29.98 in 10.0 mi ESE 10.4 mph 17.3 mph N/A   Overcast
8:55 AM 58.6 °F - 58.6 °F 100% 29.97 in 10.0 mi ESE 12.7 mph 17.3 mph N/A   Overcast
9:15 AM 59.0 °F - 59.0 °F 100% 29.97 in 10.0 mi ESE 10.4 mph 17.3 mph N/A   Overcast
9:35 AM 59.0 °F - 59.0 °F 100% 29.97 in 7.0 mi East 10.4 mph 17.3 mph N/A   Overcast
9:55 AM 59.4 °F - 59.4 °F 100% 29.97 in 7.0 mi SE 16.1 mph 21.9 mph N/A   Overcast
10:15 AM 59.9 °F - 59.9 °F 100% 29.97 in 10.0 mi SE 13.8 mph 20.7 mph N/A   Overcast
10:35 AM 60.3 °F - 60.3 °F 100% 29.97 in 10.0 mi ESE 16.1 mph 23.0 mph N/A   Overcast
10:55 AM 60.8 °F - 60.8 °F 100% 29.96 in 10.0 mi ESE 12.7 mph 24.2 mph N/A   Overcast
11:15 AM 61.2 °F - 61.2 °F 100% 29.96 in 10.0 mi ESE 13.8 mph 20.7 mph N/A   Overcast
11:35 AM 61.5 °F - 61.5 °F 100% 29.95 in 10.0 mi ESE 15.0 mph 23.0 mph N/A   Overcast
11:55 AM 61.3 °F - 61.3 °F 100% 29.94 in 7.0 mi ESE 13.8 mph 23.0 mph N/A   Overcast
12:15 PM 61.9 °F - 61.9 °F 100% 29.93 in 7.0 mi SE 12.7 mph 18.4 mph N/A   Overcast
12:35 PM 61.7 °F - 61.7 °F 100% 29.92 in 5.0 mi ESE 10.4 mph - N/A   Overcast
12:55 PM 61.7 °F - 61.7 °F 100% 29.91 in 4.0 mi ESE 11.5 mph 19.6 mph N/A   Overcast
1:15 PM 61.7 °F - 61.7 °F 100% 29.90 in 5.0 mi ESE 12.7 mph 19.6 mph N/A   Overcast
1:35 PM 62.8 °F - 62.8 °F 100% 29.89 in 10.0 mi SE 11.5 mph 20.7 mph N/A   Overcast
1:55 PM 64.0 °F - 64.0 °F 100% 29.88 in 10.0 mi ESE 15.0 mph 20.7 mph N/A   Overcast
2:15 PM 64.0 °F - 64.0 °F 100% 29.88 in 10.0 mi SE 9.2 mph - N/A   Overcast
2:35 PM 64.4 °F - 64.4 °F 100% 29.88 in 10.0 mi SE 9.2 mph - N/A   Overcast
2:55 PM 64.4 °F - 64.4 °F 100% 29.88 in 10.0 mi ESE 8.1 mph - N/A   Overcast
3:15 PM 65.3 °F - 64.6 °F 98% 29.88 in 10.0 mi ESE 10.4 mph - N/A   Overcast
3:35 PM 66.6 °F - 65.5 °F 96% 29.87 in 10.0 mi ESE 6.9 mph - N/A   Overcast
3:55 PM 66.2 °F - 64.9 °F 96% 29.88 in 10.0 mi ESE 6.9 mph - N/A   Overcast
4:15 PM 66.2 °F - 64.9 °F 96% 29.88 in 10.0 mi ESE 8.1 mph - N/A   Overcast
4:35 PM 66.2 °F - 65.3 °F 97% 29.88 in 10.0 mi ESE 5.8 mph - N/A   Overcast
4:55 PM 65.3 °F - 65.3 °F 100% 29.87 in 10.0 mi East 6.9 mph - N/A Rain Light Rain
5:15 PM 64.9 °F - 64.9 °F 100% 29.87 in 10.0 mi ESE 9.2 mph - N/A Rain Light Rain
5:35 PM 63.9 °F - 63.9 °F 100% 29.87 in 5.0 mi ESE 5.8 mph - 0.12 in Rain Light Rain
5:55 PM 64.4 °F - 64.4 °F 100% 29.86 in 2.5 mi West 12.7 mph - 0.33 in Rain , Thunderstorm Heavy Thunderstorms and Rain
6:15 PM 63.1 °F - 63.1 °F 100% 29.88 in 1.2 mi ESE 5.8 mph - 0.52 in Rain , Thunderstorm Heavy Thunderstorms and Rain
6:35 PM 59.2 °F - 58.5 °F 97% 29.89 in 1.5 mi ESE 11.5 mph 24.2 mph 1.34 in Rain , Thunderstorm Heavy Thunderstorms and Rain
6:55 PM 58.5 °F - 58.1 °F 99% 29.92 in 4.0 mi ENE 3.5 mph - 1.81 in Rain , Thunderstorm Heavy Thunderstorms and Rain
7:15 PM 57.6 °F - 57.6 °F 100% 29.91 in 5.0 mi NE 6.9 mph - 0.09 in Rain , Thunderstorm Rain
7:35 PM 53.2 °F - 53.2 °F 100% 29.94 in 5.0 mi West 15.0 mph 27.6 mph 0.16 in Rain Rain
7:55 PM 51.8 °F - 51.8 °F 100% 29.95 in 5.0 mi WSW 16.1 mph 24.2 mph 0.21 in Rain Rain
8:15 PM 50.5 °F - 50.5 °F 100% 29.97 in 10.0 mi West 13.8 mph 18.4 mph 0.01 in Rain , Thunderstorm Rain
8:35 PM 50.0 °F - 50.0 °F 100% 29.99 in 7.0 mi West 9.2 mph 18.4 mph 0.05 in Rain Heavy Rain
8:55 PM 49.1 °F - 49.1 °F 100% 30.02 in 7.0 mi West 5.8 mph - 0.11 in Rain Rain
9:15 PM 47.5 °F - 47.5 °F 100% 30.01 in 5.0 mi SW 18.4 mph 26.5 mph 0.06 in Rain Rain
9:35 PM 46.6 °F - 46.6 °F 100% 30.04 in 10.0 mi WSW 10.4 mph - 0.09 in Rain Light Rain
9:55 PM 46.4 °F 41.5 °F 46.4 °F 100% 30.05 in 10.0 mi West 10.4 mph 20.7 mph 0.12 in Rain Light Rain
10:15 PM 45.9 °F 40.0 °F 45.9 °F 100% 30.08 in 10.0 mi West 12.7 mph 20.7 mph 0.03 in Rain Rain
10:35 PM 44.8 °F 39.0 °F 44.8 °F 100% 30.10 in 7.0 mi West 11.5 mph 23.0 mph 0.10 in Rain Rain
10:55 PM 44.4 °F 37.2 °F 44.4 °F 100% 30.06 in 5.0 mi WSW 16.1 mph - 0.17 in Rain Heavy Rain
11:15 PM 44.1 °F 39.5 °F 44.1 °F 100% 30.08 in 10.0 mi WSW 8.1 mph - N/A   Mostly Cloudy
11:35 PM 44.1 °F 37.1 °F 44.1 °F 100% 30.09 in 10.0 mi WSW 15.0 mph 20.7 mph N/A   Mostly Cloudy
11:55 PM 43.7 °F 36.9 °F 43.7 °F 100% 30.09 in 10.0 mi WSW 13.8 mph 25.3 mph N/A   Overcast